Find Starlink 5554

NORAD ID: 56338 Int'l Des: 2023-058 Owner: SPXS Country: US Constellation: starlink operational
LEOCIRCULARRETROGRADESSO

当前视图

正在加载3D地球...

About Starlink 5554

Starlink 5554 (NORAD 56338) is a starlink constellation satellite (v1.5) launched Apr 27, 2023 by SPXS of US. It operates in LEO, CIRCULAR, RETROGRADE, SSO orbit with a mass of 300.00 kg.

关于 Starlink 5554

正在加载描述...

即将过境

Passes for default location (London). Set your location on the main map for personalized predictions.

高度历史

Loading altitude history...

两行轨道根数

1 56338U 23058X 26170.95027439 .00000121 00000-0 12326-4 0 9990
2 56338 97.3383 169.8654 0001626 84.0901 276.0511 15.05657583173510
Epoch: Jun 19, 2026 • Age: 30 hours

当前状态

高度 555.1 km
速度 7.58 km/s
星下点 -12.79°S, 172.5°W
发射日期 Apr 27, 2023
运行时间 3.1 years
类型 internet

技术详情

分类 Payload
质量 300.00 kg
干质量 260.00 kg
总质量 300.00 kg
长度 0.20 m
直径 2.80 m
跨度 9.00 m
形状 Box + pan
制造商 SPXS
平台类型 Starlink
阶段状态 In Orbit
所有者/国家 SPXS/US

Most Searched